Flint, MI

12:23 PM EDT on April 30, 2017 (GMT -0400)
Bishop International

Weather History for KFNT - February, 2014

Change the Weather History Date:

Monday, February 10, 2014

  Actual Average Record
Temperature  
Mean Temperature 12 °F 24 °F  
Max Temperature 19 °F 31 °F 60 °F (2009)
Min Temperature 5 °F 16 °F -19 °F (1994)
Degree Days  
Heating Degree Days 53 41  
Month to date heating degree days 525 418  
Since 1 July heating degree days 4678 4382  
Cooling Degree Days 0 0  
Month to date cooling degree days 0 0  
Year to date cooling degree days 0 0  
Moisture  
Dew Point 6 °F    
Average Humidity 69    
Maximum Humidity 84    
Minimum Humidity 54    
Precipitation  
Precipitation 0.03 in 0.05 in 0.58 in (1981)
Month to date precipitation 0.72 0.48  
Year to date precipitation 3.25 2.11  
Snow  
Snow 0.60 in 0.40 in 4.00 in (1955)
Month to date snowfall 13.1 4.0  
Since 1 July snowfall 64.5 31.8  
Snow Depth 12.00 in    
Sea Level Pressure  
Sea Level Pressure 30.27 in    
Wind  
Wind Speed 7 mph (West)    
Max Wind Speed 16 mph    
Max Gust Speed 21 mph    
Visibility 6 miles    
Events Snow    
T = Trace of Precipitation, MM = Missing Value Source: NWS Daily Summary

Daily Weather History Graph

Daily Weather History Graph

Search for Another Location

Airport or City:

Trip Planner

Search our weather history database for the weather conditions in past years. The results will help you decide how hot, cold, wet, or windy it might be!

Date:

Astronomy

Feb. 10, 2014 Rise Set
Actual Time 7:39 AM EST 5:59 PM EST
Civil Twilight 7:09 AM EST 6:29 PM EST
Nautical Twilight 6:36 AM EST 7:02 PM EST
Astronomical Twilight 6:03 AM EST 7:35 PM EST
Moon 2:25 PM EST (2/10) 4:34 AM EST (2/10)
Length of Visible Light 11h 19m
Length of Day
10h 20m
Waxing Gibbous, 84% of the Moon is Illuminated
Feb 10
Waxing Gibbous
Feb 14
Full
Feb 22
Last Quarter
Mar 1
New
Mar 8
First Quarter

Hourly Weather History & Observations

Time (EST) Temp. Windchill Dew Point Humidity Pressure Visibility Wind Dir Wind Speed Gust Speed Precip Events Conditions
12:53 AM 15.1 °F 2.5 °F 10.0 °F 80% 30.18 in 8.0 mi WNW 10.4 mph - N/A   Overcast
1:53 AM 15.1 °F 6.4 °F 10.0 °F 80% 30.19 in 6.0 mi WNW 5.8 mph - 0.00 in   Haze
2:53 AM 12.0 °F 4.1 °F 8.1 °F 84% 30.20 in 8.0 mi West 4.6 mph - N/A   Overcast
3:45 AM 10.4 °F 0.8 °F 6.8 °F 85% 30.16 in 7.0 mi West 5.8 mph - N/A   Mostly Cloudy
3:53 AM 10.9 °F 2.9 °F 7.0 °F 84% 30.21 in 6.0 mi West 4.6 mph - N/A   Mostly Cloudy
4:48 AM 8.6 °F -1.3 °F 5.0 °F 85% 30.17 in 6.0 mi West 5.8 mph - 0.00 in   Mostly Cloudy
4:53 AM 9.0 °F 0.6 °F 5.0 °F 84% 30.22 in 6.0 mi WSW 4.6 mph - 0.00 in   Mostly Cloudy
5:53 AM 8.1 °F 1.4 °F 3.9 °F 83% 30.24 in 5.0 mi SW 3.5 mph - N/A   Overcast
6:33 AM 8.6 °F 0.1 °F 5.0 °F 85% 30.19 in 2.5 mi SW 4.6 mph - N/A Snow Light Snow
6:53 AM 10.0 °F 0.4 °F 6.1 °F 84% 30.25 in 3.0 mi SW 5.8 mph - N/A Snow Light Snow
7:26 AM 10.4 °F 2.2 °F 6.8 °F 85% 30.21 in 2.5 mi WSW 4.6 mph - 0.00 in Snow Light Snow
7:34 AM 10.4 °F 2.2 °F 6.8 °F 85% 30.21 in 3.0 mi West 4.6 mph - 0.00 in Snow Light Snow
7:51 AM 10.4 °F -0.4 °F 6.8 °F 85% 30.22 in 2.0 mi West 6.9 mph - 0.00 in Snow Light Snow
7:53 AM 10.0 °F 0.4 °F 6.1 °F 84% 30.27 in 2.0 mi West 5.8 mph - 0.00 in Snow Light Snow
8:08 AM 10.4 °F 0.8 °F 6.8 °F 85% 30.22 in 3.0 mi West 5.8 mph - 0.00 in Snow Light Snow
8:48 AM 10.4 °F 0.8 °F 6.8 °F 85% 30.24 in 1.8 mi West 5.8 mph - 0.00 in Snow Light Snow
8:53 AM 10.9 °F 1.4 °F 7.0 °F 84% 30.30 in 1.5 mi West 5.8 mph - 0.00 in Snow Light Snow
9:35 AM 12.2 °F 1.7 °F 6.8 °F 79% 30.25 in 1.5 mi West 6.9 mph - 0.00 in Snow Light Snow
9:53 AM 12.0 °F 0.5 °F 7.0 °F 80% 30.30 in 1.5 mi NW 8.1 mph - 0.00 in Snow Light Snow
10:06 AM 12.2 °F 2.9 °F 6.8 °F 79% 30.26 in 2.0 mi WNW 5.8 mph - 0.00 in Snow Light Snow
10:32 AM 12.2 °F 4.3 °F 6.8 °F 79% 30.26 in 1.8 mi West 4.6 mph - 0.00 in Snow Light Snow
10:43 AM 14.0 °F 6.5 °F 8.6 °F 79% 30.26 in 2.0 mi West 4.6 mph - 0.00 in Snow Light Snow
10:45 AM 12.2 °F 2.9 °F 6.8 °F 79% 30.26 in 3.0 mi West 5.8 mph - 0.00 in Snow Light Snow
10:53 AM 14.0 °F 6.5 °F 7.0 °F 74% 30.32 in 3.0 mi NW 4.6 mph - 0.00 in Snow Light Snow
11:46 AM 15.8 °F 10.2 °F 8.6 °F 73% 30.27 in 7.0 mi SW 3.5 mph - 0.00 in   Scattered Clouds
11:53 AM 15.1 °F 9.4 °F 7.0 °F 70% 30.31 in 7.0 mi SW 3.5 mph - 0.00 in   Partly Cloudy
12:53 PM 16.0 °F 4.4 °F 7.0 °F 68% 30.30 in 9.0 mi WNW 9.2 mph - N/A   Clear
1:53 PM 17.1 °F 7.6 °F 7.0 °F 65% 30.29 in 10.0 mi West 6.9 mph - N/A   Partly Cloudy
2:53 PM 18.0 °F 8.7 °F 3.9 °F 54% 30.29 in 10.0 mi West 6.9 mph - N/A   Mostly Cloudy
3:53 PM 17.1 °F 5.0 °F 3.9 °F 56% 30.31 in 10.0 mi WNW 10.4 mph - N/A   Overcast
4:53 PM 16.0 °F 6.3 °F 5.0 °F 62% 30.32 in 10.0 mi WNW 6.9 mph - N/A   Overcast
5:53 PM 16.0 °F 6.3 °F 5.0 °F 62% 30.33 in 9.0 mi NW 6.9 mph - N/A   Overcast
6:53 PM 15.1 °F 9.4 °F 7.0 °F 70% 30.35 in 10.0 mi West 3.5 mph - N/A   Overcast
7:53 PM 15.1 °F 2.5 °F 7.0 °F 70% 30.36 in 10.0 mi West 10.4 mph - N/A   Overcast
8:53 PM 14.0 °F 1.2 °F 6.1 °F 71% 30.37 in 10.0 mi West 10.4 mph - 0.00 in   Overcast
9:53 PM 12.9 °F -0.9 °F 3.9 °F 67% 30.38 in 10.0 mi West 11.5 mph - N/A   Overcast
10:53 PM 12.9 °F -0.9 °F 3.0 °F 65% 30.40 in 10.0 mi WNW 11.5 mph - N/A   Overcast
11:28 PM 12.2 °F -1.0 °F 3.2 °F 67% 30.34 in 10.0 mi WNW 10.4 mph - N/A   Overcast
11:53 PM 12.0 °F -0.4 °F 3.0 °F 67% 30.40 in 10.0 mi WNW 9.2 mph - N/A   Overcast